Aurora, CO

7:37 AM MDT on April 23, 2017 (GMT -0600)
Buckley Air Force Base

Weather History for KBKF - November, 2011

Change the Weather History Date:

Sunday, November 6, 2011

  Actual Average Record
Temperature  
Mean Temperature 36 °F -  
Max Temperature 48 °F 52 °F 75 °F (2010)
Min Temperature 24 °F 28 °F 15 °F (2000)
Degree Days  
Heating Degree Days 29    
Moisture  
Dew Point 22 °F    
Average Humidity 62    
Maximum Humidity 87    
Minimum Humidity 34    
Precipitation  
Precipitation 0.00 in - - ()
Sea Level Pressure  
Sea Level Pressure 29.84 in    
Wind  
Wind Speed 9 mph (East)    
Max Wind Speed 18 mph    
Max Gust Speed -    
Visibility 7 miles    
Events      
Averages and records for this station are not official NWS values.
T = Trace of Precipitation, MM = Missing Value Source: NWS Daily Summary

Daily Weather History Graph

Daily Weather History Graph

Search for Another Location

Airport or City:

Trip Planner

Search our weather history database for the weather conditions in past years. The results will help you decide how hot, cold, wet, or windy it might be!

Date:

Astronomy

Nov. 06, 2011 Rise Set
Actual Time 6:32 AM MST 4:51 PM MST
Civil Twilight 6:04 AM MST 5:20 PM MST
Nautical Twilight 5:32 AM MST 5:52 PM MST
Astronomical Twilight 5:01 AM MST 6:23 PM MST
Moon 2:36 PM MST (11/6) 2:42 AM MST (11/6)
Length of Visible Light 11h 15m
Length of Day
10h 18m
Waxing Gibbous, 86% of the Moon is Illuminated
Nov 6
Waxing Gibbous
Nov 10
Full
Nov 18
Last Quarter
Nov 24
New
Dec 2
First Quarter

Hourly Weather History & Observations

Time (MST) Temp. Windchill Dew Point Humidity Pressure Visibility Wind Dir Wind Speed Gust Speed Precip Events Conditions
12:55 AM 32.0 °F 25.6 °F 28.4 °F 87% 29.60 in 7.0 mi ESE 6.9 mph - N/A   Partly Cloudy
1:55 AM 28.4 °F 19.1 °F 24.8 °F 86% 29.65 in 7.0 mi ESE 10.4 mph - N/A   Partly Cloudy
1:55 AM 28.4 °F 15.8 °F 23.0 °F 80% 29.66 in 7.0 mi SE 18.4 mph - N/A   Partly Cloudy
2:55 AM 28.4 °F 17.0 °F 23.0 °F 80% 29.71 in 7.0 mi SE 15.0 mph - N/A   Partly Cloudy
3:55 AM 26.6 °F 15.7 °F 21.2 °F 80% 29.73 in 7.0 mi East 12.7 mph - N/A   Partly Cloudy
4:55 AM 26.6 °F 16.8 °F 21.2 °F 80% 29.76 in 7.0 mi ESE 10.4 mph - N/A   Partly Cloudy
5:55 AM 24.8 °F - 21.2 °F 86% 29.81 in 7.0 mi North 2.3 mph - N/A   Partly Cloudy
6:55 AM 28.4 °F - 19.4 °F 69% 29.84 in 70.0 mi ESE 2.3 mph - N/A   Partly Cloudy
7:55 AM 32.0 °F 24.8 °F 23.0 °F 69% 29.84 in 70.0 mi SSW 8.1 mph - N/A   Partly Cloudy
8:55 AM 35.6 °F 27.1 °F 24.8 °F 65% 29.85 in 70.0 mi NNW 12.7 mph - N/A   Partly Cloudy
9:55 AM 37.4 °F 32.1 °F 26.6 °F 65% 29.87 in 70.0 mi NNE 6.9 mph - N/A   Partly Cloudy
10:55 AM 41.0 °F 37.1 °F 21.2 °F 45% 29.87 in 70.0 mi NE 5.8 mph - N/A   Partly Cloudy
11:55 AM 44.6 °F 42.2 °F 19.4 °F 37% 29.84 in 70.0 mi ENE 4.6 mph - N/A   Partly Cloudy
12:55 PM 46.4 °F 44.3 °F 19.4 °F 34% 29.82 in 70.0 mi East 4.6 mph - N/A   Partly Cloudy
1:55 PM 46.4 °F 42.4 °F 21.2 °F 37% 29.82 in 70.0 mi North 8.1 mph - N/A   Partly Cloudy
2:55 PM 48.2 °F - 21.2 °F 34% 29.84 in 70.0 mi North 5.8 mph - N/A   Partly Cloudy
3:55 PM 46.4 °F 42.4 °F 21.2 °F 37% 29.85 in 70.0 mi NE 8.1 mph - N/A   Partly Cloudy
4:55 PM 37.4 °F 31.4 °F 23.0 °F 56% 29.92 in 70.0 mi ENE 8.1 mph - N/A   Partly Cloudy
5:55 PM 35.6 °F 28.6 °F 21.2 °F 56% 29.95 in 25.0 mi East 9.2 mph - N/A   Partly Cloudy
6:55 PM 32.0 °F 24.8 °F 21.2 °F 64% 29.99 in 25.0 mi ESE 8.1 mph - N/A   Partly Cloudy
7:55 PM 32.0 °F 24.2 °F 21.2 °F 64% 29.99 in 25.0 mi ESE 9.2 mph - N/A   Partly Cloudy
8:55 PM 32.0 °F 25.6 °F 19.4 °F 60% 29.99 in 25.0 mi SE 6.9 mph - N/A   Partly Cloudy
9:55 PM 32.0 °F 26.4 °F 19.4 °F 60% 29.99 in 25.0 mi SW 5.8 mph - N/A   Partly Cloudy
10:55 PM 30.2 °F 23.4 °F 19.4 °F 64% 29.99 in 25.0 mi South 6.9 mph - N/A   Partly Cloudy